Regional Weather Roundup
Issued by NWS

Home | Current Version | Previous Version | Graphics & Text | Print | Product List | Glossary On
Versions: 1 2 3 4 5 6 7 8 9 10 11 12 13 14 15 16 17 18 19 20 21 22 23 24 25 26 27 28 29 30 31 32 33 34 35 36 37 38 39 40 41 42 43 44 45 46 47 48 49 50
000
ASUS43 KFSD 250202
RWRSD

WEATHER ROUNDUP FOR SOUTH DAKOTA
NATIONAL WEATHER SERVICE SIOUX FALLS SD
900 PM CDT WED MAY 24 2017

NOTE: "FAIR" INDICATES FEW OR NO CLOUDS BELOW 12,000 FEET WITH NO
SIGNIFICANT WEATHER AND/OR OBSTRUCTIONS TO VISIBILITY.


SDZ001>005-009-010-012>017-250300-
NORTHWEST AND NORTH CENTRAL SOUTH DAKOTA

CITY           SKY/WX    TMP DP  RH WIND       PRES   REMARKS
BUFFALO          N/A     63  51  65 E18       29.22R
FAITH            N/A     65  40  39 SE24G35   29.33F
MOBRIDGE       CLEAR     63  43  48 SE20G26   29.43F
$$

SDZ012>016-024>037-041>051-057-063-072>074-250300-
SOUTHWEST AND SOUTH CENTRAL SOUTH DAKOTA

CITY           SKY/WX    TMP DP  RH WIND       PRES   REMARKS
RAPID CTY ARPT CLEAR     70  49  47 SE14      29.31F
PIERRE         CLEAR     63  43  48 SE23G31   29.42F
CUSTER         CLEAR     64  46  52 E3        29.45F
ELLSWORTH AFB  CLEAR     72  49  44 S16       29.29F
PHILIP         CLEAR     69  44  40 SE12      29.34F
PINE RIDGE     CLEAR     73  48  41 S20G31    29.37F
SPEARFISH      LGT RAIN  75  46  35 S9G15     29.27F
WINNER         FAIR      62  45  53 SE15      29.49F
$$

SDZ004>011-016>023-039-040-250300-
NORTHEAST SOUTH DAKOTA

CITY           SKY/WX    TMP DP  RH WIND       PRES   REMARKS
ABERDEEN       CLEAR     59  41  51 S14       29.58R
WATERTOWN      CLEAR     54  44  69 SE9       29.61F
BROOKINGS      CLEAR     55  46  71 SE13      29.64F
SISSETON         N/A     57  46  66 S12       29.62S
$$

SDZ017-020-022-023-036>040-048>070-250300-
SOUTHEAST SOUTH DAKOTA

CITY           SKY/WX    TMP DP  RH WIND       PRES   REMARKS
SIOUX FALLS    PTCLDY    58  46  64 SE8       29.65S
HURON          CLEAR     59  46  62 SE12      29.57F
MITCHELL       CLEAR     60  45  57 SE15      29.60S
YANKTON        CLEAR     59  45  59 E7        29.63F
$$

ABBREVIATIONS USED IN REMARKS
   TC - TEMPERATURE IN CELSIUS
  WCI - WIND CHILL INDEX
   HX - HEAT INDEX
  VSB - VISIBILITY





USA.gov is the U.S. government's official web portal to all federal, state and local government web resources and services.